Weather in Aleksandrovo

Russia / Kostroma Oblast     57°46′18″N   41°43′15″E
temp.,
°C
wind,
m/s
gust,
m/s
humid.,
%
clouds,
%
prec.,
mm/h
press.,
hPa
HPBL,
m
18 may, tue
tue1800:00+15e31190100 0.7 1015210
03:00+14ese311966 1.4 1015240
06:00+16ese399599 0.0 1015239
09:00+21ese4875100 0.0 1015430
12:00+25se585169 0.0 1015989
15:00+26se585252 0.0 10151103
18:00+24se4106018 0.0 1013901
21:00+19se414755 0.0 1014434
19 may, wed
wed1900:00+18ese515865 0.0 1014436
03:00+17ese413940 0.0 1014388
06:00+18ese414854 0.0 1014445
09:00+23ese510605 0.0 1014596
12:00+26se610464 0.0 10131207
15:00+27se510465 0.0 10122231
18:00+24se511580 0.0 10121398
21:00+20ese514700 0.0 1012738
20 may, thu
thu2000:00+18ese516765 0.0 1012583
03:00+17ese514770 0.0 1012477
06:00+17se413760 0.0 1012489
09:00+22se47610 0.0 1011709
12:00+25se711500 0.0 10101637
15:00+26se712520 0.1 10102190
18:00+21sse51367100 0.4 10091462
21:00+17se71479100 0.9 10081001
21 may, fri
fri2100:00+13sse5149035 0.1 1009669
03:00+12se4119661 0.1 1009465
06:00+13sse51187100 0.0 1009716
09:00+14sse51186100 0.3 10081012
12:00+15ssw71372100 0.8 10091522
15:00+13ssw61275100 0.9 10111446
18:00+11ssw61183100 0.1 10121062
21:00+11sw51087100 0.2 1014930
22 may, sat
sat2200:00+10w498788 0.1 1017804
03:00+7wsw2699100 0.1 1019157
06:00+9ssw3590100 0.0 1020221
09:00+13sw3472100 0.0 1020586
12:00+15ssw4661100 0.1 10211177
15:00+17ssw3351100 0.1 10201564
18:00+15ssw2468100 0.0 1020295
21:00+12s1184100 0.0 101912